Regional Weather Roundup
Issued by NWS

Home | Current Version | Previous Version | Graphics & Text | Print | Product List | Glossary On
Versions: 1 2 3 4 5 6 7 8 9 10 11 12 13 14 15 16 17 18 19 20 21 22 23 24 25 26 27 28 29 30 31 32 33 34 35 36 37 38 39 40 41 42 43 44 45 46 47 48 49 50
000
ASUS43 KLMK 231110
RWRKY
KENTUCKY REGIONAL WEATHER ROUNDUP
NATIONAL WEATHER SERVICE LOUISVILLE KY
700 AM EDT SAT JUL 23 2016

NOTE "FAIR" INDICATES FEW OR NO CLOUDS BELOW 12,000 FEET
WITH NO SIGNIFICANT WEATHER AND/OR OBSTRUCTIONS TO VISIBILITY.

KYZ001>023-026-027-061>063-070>075-231200-
WESTERN AND SOUTH CENTRAL KENTUCKY

CITY           SKY/WX    TMP DP  RH WIND       PRES   REMARKS
PADUCAH        CLOUDY    74  72  93 MISG      29.98R FOG
HENDERSON      PTCLDY    73  70  88 CALM      29.98S
OWENSBORO      PTCLDY    74  73  96 CALM      30.01R
HOPKINSVILLE   MOCLDY    74  73  94 CALM      30.00R
BOWLING GREEN  PTCLDY    74  73  97 CALM      30.02R FOG
GLASGOW        MOCLDY    72  72 100 CALM      30.02R
$$

KYZ024-025-028>034-038-045-046-053-231200-
NORTH CENTRAL KENTUCKY

CITY           SKY/WX    TMP DP  RH WIND       PRES   REMARKS
LOUISVILLE/SDF PTCLDY    75  71  87 CALM      30.01S
LOUISVILLE/LOU CLEAR     74  70  87 CALM      30.02S
FORT KNOX      CLEAR     69  69 100 S2        30.01S FOG
$$

KYZ035>037-039>044-047>052-055>060-089>105-231200-
NORTHEAST KENTUCKY

CITY           SKY/WX    TMP DP  RH WIND       PRES   REMARKS
LEXINGTON      CLEAR     71  68  90 SE3       30.05R
COVINGTON      PTCLDY    70  70 100 S3        30.03R FOG
FRANKFORT      CLEAR     71  68  90 CALM      30.02S FOG
$$

KYZ054-064>069-076>088-106>120-231200-
SOUTHEAST KENTUCKY

CITY           SKY/WX    TMP DP  RH WIND       PRES   REMARKS
JACKSON        CLOUDY    69  67  93 CALM      30.06S FOG
LONDON         CLEAR     72  68  87 CALM      30.06R
SOMERSET       PTCLDY    70  70 100 CALM      30.06R FOG
MIDDLESBORO    CLEAR     72  71  97 CALM      30.07R
MONTICELLO     SUNNY    N/A N/A N/A MISG      30.06R HAZE
$$





USA.gov is the U.S. government's official web portal to all federal, state and local government web resources and services.